Wind_Speed
6 6 6 5 4 3 2 1 2 4 7 8 7 8 8 9 9 9 9 8 8 8 7 6 6 6 6 6 6 6 7 8 8 8 8 8 8 8 7 7 5 4 2 1 1 1 1 2 2
7 6 6 6 5 3 1 2 3 4 7 8 7 7 7 8 8 9 8 8 8 8 8 7 7 6 6 6 6 7 7 8 8 8 8 8 8 8 7 7 6 4 3 2 2 2 2 2 2
8 7 7 6 4 3 1 2 4 5 8 8 7 7 7 7 8 8 8 8 8 8 8 7 7 6 6 6 7 7 7 7 8 8 8 8 8 8 8 7 6 5 4 3 3 3 2 1 1
9 8 7 6 4 3 2 3 4 6 9 9 9 8 8 8 9 8 8 8 8 8 8 7 7 6 6 6 7 7 7 8 8 8 8 8 8 8 8 7 6 5 5 4 3 2 2 1 1
9 8 7 6 4 3 3 4 6 8 9 10 10 9 9 9 9 8 8 7 7 7 7 7 7 7 7 7 7 8 8 8 8 8 8 8 9 8 7 7 6 5 5 4 4 3 2 1 1
10 9 8 5 5 4 5 6 7 9 10 11 10 9 8 9 8 7 7 7 7 8 7 7 8 8 7 7 8 8 8 8 8 9 9 8 9 8 7 7 6 5 5 4 4 3 2 2 2
11 9 8 7 6 4 5 8 9 10 11 11 11 10 10 9 9 7 7 7 7 8 8 8 8 8 8 8 9 9 9 9 9 9 9 9 8 8 7 7 6 6 5 5 4 3 3 3 3
11 10 8 6 6 6 7 9 10 10 12 12 12 12 11 10 10 9 7 7 7 8 8 8 8 8 9 10 10 10 9 9 9 9 9 9 8 8 7 7 6 6 6 6 5 4 3 3 3
11 11 9 8 8 8 9 10 11 12 12 12 12 11 11 11 11 10 9 7 7 8 8 9 8 8 9 10 10 10 10 10 10 9 9 9 8 7 7 7 7 7 6 6 6 5 5 4 4
12 11 10 11 10 9 11 11 12 13 13 13 12 12 12 12 11 11 10 8 8 8 9 10 9 9 10 10 10 11 11 10 9 9 9 8 8 8 8 7 7 7 7 7 7 7 6 6 5
13 12 12 13 12 11 12 13 13 14 14 14 13 13 13 13 13 13 12 11 10 9 9 10 10 10 10 10 11 11 11 11 10 10 10 9 9 9 9 8 8 8 8 8 8 8 8 7 6
14 13 13 14 14 12 13 13 14 14 15 13 13 14 13 13 13 14 13 12 11 11 10 10 11 11 11 11 11 11 11 11 11 11 11 10 10 10 9 9 8 9 9 8 9 9 9 9 8
15 14 14 14 14 14 14 14 15 15 14 14 14 14 15 14 14 13 13 13 12 11 11 11 12 12 11 11 11 11 11 11 11 11 11 11 10 10 10 10 9 9 10 10 9 10 9 9 9
15 16 15 15 15 15 16 16 16 14 15 14 14 14 15 17 16 14 14 14 13 12 11 12 13 13 12 12 12 12 11 11 12 12 12 11 11 10 10 9 10 10 11 11 10 10 10 10 10
16 15 14 14 15 15 16 16 15 15 16 15 15 15 16 16 16 16 15 15 14 14 14 13 13 14 14 14 13 12 12 12 12 13 12 12 11 10 10 10 10 11 11 11 11 10 10 10 10
16 15 14 15 16 16 17 17 16 16 17 17 16 16 16 16 17 17 17 16 15 15 15 14 14 14 15 14 14 14 13 13 13 14 13 12 11 10 10 11 11 11 11 12 11 11 11 11 11
15 14 14 15 16 17 18 18 17 17 17 17 17 16 16 17 17 18 18 18 16 16 16 15 14 15 15 15 14 14 15 14 14 14 13 12 12 12 11 10 10 11 11 11 11 11 11 12 12
15 15 15 15 15 17 19 19 19 20 19 18 18 17 17 18 18 18 19 18 17 16 16 16 15 15 15 15 15 15 16 16 16 15 14 13 12 12 10 10 10 10 11 11 12 12 12 12 12
16 18 17 16 16 19 20 20 20 21 20 19 19 19 19 19 19 20 19 19 18 17 17 17 17 17 16 16 16 16 17 17 16 16 15 14 13 13 12 11 11 11 12 13 13 13 13 13 13
18 18 18 17 18 20 20 20 21 21 21 20 20 21 21 21 21 20 19 19 18 18 18 18 18 18 17 17 17 17 17 17 16 16 15 14 14 13 13 12 12 13 13 13 14 13 13 13 13
19 18 19 19 20 20 21 22 22 22 22 21 21 21 22 22 22 20 20 20 20 19 19 19 18 18 18 18 18 17 17 17 17 17 16 15 15 14 14 13 13 13 14 14 14 14 14 14 13
19 18 20 21 21 21 22 24 22 22 22 22 21 21 22 22 22 21 21 20 20 20 20 20 19 19 18 18 18 17 17 17 18 17 16 16 16 15 14 15 14 14 14 15 15 15 15 14 13
20 20 22 24 24 23 23 25 22 22 23 23 23 22 22 21 21 21 21 21 21 20 21 20 19 19 19 19 18 18 18 18 17 17 16 16 16 16 16 16 15 15 15 16 16 15 15 15 14
19 21 24 25 25 25 23 25 23 23 24 23 23 22 23 22 22 22 23 23 22 20 20 20 19 19 19 19 19 19 19 18 17 17 16 16 15 15 16 15 15 15 15 15 15 15 15 15 15
19 21 24 26 25 24 22 25 24 23 23 22 22 22 22 21 22 21 22 23 22 21 21 21 20 19 19 19 20 20 20 19 18 17 17 17 16 15 15 16 16 15 15 15 15 15 15 15 15
20 22 23 24 24 23 23 25 23 21 21 22 22 22 21 21 21 22 22 22 22 21 21 20 19 19 19 20 20 20 20 19 19 18 18 18 17 16 16 15 16 15 16 16 15 15 15 15 15
21 22 21 23 23 24 24 24 23 22 22 21 22 21 21 21 22 23 22 21 21 21 20 20 19 20 20 20 20 20 20 20 19 19 19 19 18 17 16 16 16 15 16 16 16 16 16 15 16
23 22 22 23 24 25 24 23 23 23 22 21 20 19 20 21 22 23 23 22 21 20 20 20 20 20 20 20 21 21 20 20 20 20 19 18 18 18 17 17 17 16 16 16 17 17 17 17 16
23 23 24 25 27 27 27 25 23 23 22 21 20 19 20 21 21 20 21 21 21 20 20 21 21 21 21 21 21 22 21 20 19 19 20 19 18 19 19 19 18 18 17 17 18 18 18 18 18
25 25 25 27 27 27 27 26 23 23 23 23 21 21 20 21 22 21 21 21 21 21 21 21 21 21 21 21 22 22 22 21 20 20 20 20 19 19 19 19 19 19 19 18 18 19 20 20 19
Wind_Direction
173 165 166 161 144 141 117 33 347 349 330 323 324 332 332 332 333 335 338 342 348 359 1 352 345 344 343 341 341 338 339 339 335 333 330 326 326 329 330 327 321 328 329 295 237 230 230 204 180
180 176 178 176 163 153 123 354 337 343 331 325 323 330 333 332 336 339 340 344 351 358 356 348 342 338 339 337 335 332 335 336 334 332 329 327 327 329 327 326 325 329 325 309 289 267 223 187 170
190 184 185 183 176 192 243 311 329 332 324 321 325 326 329 334 339 340 338 341 345 348 348 347 342 339 338 335 333 328 327 329 330 328 325 324 324 325 327 325 322 321 322 318 308 296 263 230 184
196 187 190 183 186 203 249 295 323 328 325 324 327 329 334 335 340 340 337 337 339 343 345 341 343 341 336 333 328 326 323 323 325 324 322 321 320 321 323 323 322 318 312 318 315 303 276 272 250
203 200 200 193 194 228 263 301 315 314 319 320 327 327 333 333 339 340 339 341 343 343 342 339 342 344 338 332 326 323 321 320 320 318 318 317 315 315 318 318 319 315 311 309 304 302 291 297 269
207 208 203 201 215 241 267 277 299 304 309 316 322 329 332 337 338 344 345 347 344 342 341 341 339 339 335 328 324 321 320 320 318 315 313 310 310 309 309 308 304 304 303 298 295 282 275 261 246
207 206 204 212 222 249 273 282 290 301 303 316 321 325 330 331 327 329 340 342 339 340 337 335 335 334 332 328 324 321 320 317 315 313 310 307 307 303 300 300 295 289 288 286 285 277 274 256 240
208 208 206 213 234 243 260 277 282 293 299 307 314 320 325 325 322 324 332 334 332 334 333 333 332 330 330 331 327 325 323 317 314 312 309 305 303 298 295 294 290 284 281 276 269 270 271 257 248
209 211 211 222 235 241 260 275 285 291 300 309 312 318 322 316 312 315 324 326 324 326 327 326 326 325 327 329 326 323 323 319 316 313 310 306 300 295 294 289 280 274 270 266 263 259 260 255 253
212 206 210 225 235 245 259 269 279 289 296 302 306 314 317 316 312 315 313 313 313 317 320 321 319 321 323 323 322 319 319 320 317 315 308 303 297 294 292 286 278 268 263 259 257 256 258 253 252
215 208 215 229 238 249 262 270 277 284 289 295 301 307 310 310 309 312 310 307 306 311 313 316 316 316 318 318 317 316 315 316 315 312 307 302 295 292 288 284 274 264 259 257 257 254 254 252 256
220 217 221 232 240 249 263 272 274 281 288 291 293 298 299 303 303 305 304 302 300 307 309 311 314 314 316 315 315 314 311 309 309 311 305 301 294 290 285 280 273 262 259 259 257 253 253 254 256
223 226 229 235 239 247 256 264 272 278 284 287 289 294 296 299 302 302 306 306 302 303 305 308 311 311 312 314 315 315 312 307 308 310 304 299 292 285 282 274 266 259 257 255 250 252 255 254 254
229 231 234 236 243 247 253 264 268 272 280 282 283 288 294 298 301 301 302 304 298 301 306 308 309 309 310 312 312 311 309 306 307 308 303 297 293 288 285 274 267 261 256 255 254 257 256 254 252
236 238 239 241 244 250 259 263 266 271 278 279 278 282 287 291 295 297 298 300 298 300 303 305 306 306 308 311 310 307 304 302 301 301 297 290 287 282 279 274 272 267 262 256 255 259 260 257 255
240 241 240 242 249 254 258 262 268 271 276 278 280 284 287 290 294 294 296 295 294 294 296 300 300 301 303 306 306 305 302 300 301 300 293 287 285 278 274 273 271 266 261 259 255 259 259 257 255
243 244 244 243 249 254 259 264 267 267 271 273 278 285 288 292 295 293 293 291 288 288 288 292 295 295 296 299 301 300 300 300 300 300 296 291 285 280 275 270 267 265 262 256 255 259 259 255 253
247 245 241 243 249 258 260 264 267 266 267 273 279 286 289 292 294 292 290 291 287 288 291 293 292 291 293 295 295 295 296 297 299 300 295 287 283 283 278 268 263 263 260 256 255 257 258 253 250
243 241 243 248 252 257 261 264 266 268 270 275 279 281 286 291 293 291 290 288 286 287 291 294 294 293 294 293 293 293 293 295 296 296 291 284 282 282 279 273 266 261 259 257 256 256 255 252 251
244 246 244 245 251 258 263 266 268 271 272 276 278 279 283 288 290 287 288 287 287 290 292 291 291 290 288 289 292 293 293 294 296 294 288 281 279 277 274 272 269 265 261 257 254 255 254 252 251
243 248 248 250 253 257 262 264 267 271 269 271 275 281 284 284 286 287 285 281 284 289 290 289 286 285 285 285 288 290 290 291 293 293 286 279 274 273 271 273 271 266 262 258 253 254 253 253 253
245 249 251 251 254 257 260 265 267 270 270 273 274 279 284 284 285 284 283 283 285 288 286 286 283 282 282 282 283 286 288 289 289 288 284 279 274 271 270 272 271 268 265 260 256 255 251 251 251
253 251 253 255 254 255 256 263 267 269 271 272 273 277 283 285 285 284 284 282 283 286 286 285 278 277 278 278 280 284 286 288 287 286 282 279 275 270 270 270 270 269 265 260 257 252 249 249 248
253 251 251 252 255 256 255 261 264 268 271 273 272 274 280 281 283 283 282 283 284 283 283 283 277 277 277 277 278 281 285 287 286 285 283 279 277 274 270 266 267 266 264 257 256 252 250 249 249
254 255 253 251 254 257 256 259 264 270 272 276 275 273 277 279 280 282 285 283 283 282 283 282 277 276 276 276 278 281 285 285 284 281 279 276 276 275 271 266 265 262 257 253 254 251 250 250 251
253 255 256 258 256 255 256 259 265 269 272 273 277 274 274 278 281 283 284 284 282 284 280 279 277 275 275 276 279 281 283 284 283 279 276 274 272 271 268 268 266 260 255 251 249 250 250 252 253
253 254 256 259 258 258 259 262 265 265 267 273 278 277 276 277 280 283 282 284 283 281 280 279 279 277 277 278 280 280 281 283 284 281 276 272 270 268 265 265 264 263 257 250 247 248 251 252 255
255 255 255 256 257 258 259 263 265 266 268 271 275 273 272 274 278 280 280 283 283 280 278 279 278 278 277 278 279 279 278 281 282 279 275 271 268 265 264 264 260 258 255 252 251 250 251 252 254
255 252 253 256 257 259 260 262 267 268 269 270 275 275 272 275 281 282 284 285 284 280 278 277 277 276 275 277 278 278 277 278 279 277 273 270 268 266 265 263 258 256 255 253 253 253 252 254 253
254 253 253 255 256 259 262 262 263 266 269 270 272 275 274 275 281 286 287 283 281 279 278 276 276 276 274 275 276 277 276 276 276 276 273 272 269 266 263 260 258 256 255 255 255 255 255 255 254
Height
5906 5907 5907 5908 5909 5908 5907 5907 5907 5907 5907 5906 5906 5905 5905 5904 5904 5904 5902 5899 5897 5896 5896 5895 5895 5894 5893 5893 5892 5891 5890 5889 5888 5887 5886 5885 5884 5883 5881 5879 5878 5877 5877 5877 5877 5877 5877 5877 5877
5905 5906 5907 5908 5907 5907 5907 5906 5906 5907 5907 5905 5905 5905 5904 5903 5903 5901 5900 5899 5897 5896 5896 5895 5895 5894 5893 5892 5892 5891 5890 5889 5888 5887 5886 5885 5884 5882 5881 5880 5879 5878 5878 5877 5877 5877 5877 5877 5877
5905 5906 5907 5907 5906 5906 5906 5905 5906 5905 5906 5905 5905 5904 5904 5903 5902 5901 5899 5898 5897 5896 5896 5895 5894 5893 5893 5892 5891 5890 5890 5889 5888 5887 5886 5884 5883 5882 5881 5880 5879 5879 5878 5878 5878 5878 5878 5877 5877
5904 5905 5906 5906 5906 5905 5905 5905 5904 5904 5904 5904 5903 5903 5903 5903 5901 5900 5899 5898 5897 5896 5895 5895 5894 5893 5892 5892 5891 5890 5889 5888 5887 5886 5885 5884 5883 5882 5881 5880 5879 5879 5878 5878 5878 5878 5878 5878 5877
5903 5904 5905 5904 5905 5904 5904 5904 5904 5904 5903 5903 5903 5903 5902 5902 5901 5900 5898 5897 5897 5896 5895 5894 5893 5892 5892 5891 5890 5889 5888 5887 5886 5885 5884 5883 5882 5881 5881 5880 5879 5879 5878 5878 5878 5878 5878 5878 5878
5902 5903 5904 5903 5903 5903 5903 5902 5903 5903 5903 5902 5902 5902 5901 5900 5900 5899 5898 5897 5896 5895 5894 5894 5893 5892 5891 5890 5889 5888 5887 5886 5885 5884 5883 5882 5881 5880 5880 5879 5879 5878 5878 5878 5878 5878 5878 5878 5878
5901 5901 5902 5902 5902 5902 5903 5902 5902 5902 5901 5900 5901 5901 5900 5899 5898 5898 5897 5896 5895 5894 5894 5893 5892 5891 5890 5889 5888 5887 5886 5885 5884 5883 5882 5881 5880 5879 5879 5878 5878 5878 5877 5877 5877 5877 5877 5878 5878
5899 5901 5901 5901 5901 5901 5901 5901 5901 5901 5901 5900 5900 5900 5899 5899 5897 5896 5896 5895 5894 5893 5893 5892 5891 5890 5889 5888 5887 5886 5885 5884 5883 5882 5880 5879 5879 5878 5877 5877 5877 5877 5876 5876 5876 5876 5877 5877 5877
5897 5900 5899 5899 5899 5899 5899 5900 5900 5900 5899 5899 5899 5898 5898 5897 5896 5895 5894 5894 5893 5892 5892 5891 5890 5889 5888 5886 5885 5884 5883 5882 5881 5880 5879 5878 5877 5877 5876 5876 5876 5875 5875 5875 5875 5875 5876 5876 5876
5896 5897 5898 5898 5898 5898 5898 5898 5898 5898 5898 5898 5897 5897 5896 5895 5894 5894 5893 5892 5891 5891 5890 5889 5888 5887 5886 5885 5883 5882 5881 5880 5879 5878 5877 5876 5876 5875 5875 5874 5874 5874 5874 5874 5874 5874 5874 5875 5875
5894 5895 5895 5896 5896 5896 5896 5896 5896 5896 5896 5896 5895 5895 5894 5894 5893 5892 5891 5890 5889 5889 5888 5888 5887 5886 5884 5883 5882 5881 5880 5878 5877 5877 5875 5875 5874 5874 5873 5873 5872 5872 5872 5872 5872 5872 5873 5873 5873
5891 5892 5892 5893 5893 5894 5894 5894 5894 5895 5895 5895 5894 5893 5893 5893 5892 5891 5889 5889 5888 5887 5887 5886 5885 5883 5882 5881 5879 5879 5878 5877 5876 5875 5873 5872 5872 5871 5871 5871 5870 5870 5870 5870 5870 5871 5871 5871 5872
5889 5889 5889 5890 5891 5892 5892 5892 5892 5892 5893 5892 5892 5891 5890 5890 5889 5888 5887 5886 5886 5885 5885 5884 5882 5881 5880 5878 5877 5876 5875 5874 5873 5872 5871 5870 5869 5869 5868 5868 5868 5867 5868 5868 5869 5869 5869 5870 5870
5885 5885 5885 5887 5888 5888 5889 5889 5889 5890 5889 5889 5889 5888 5887 5887 5886 5885 5885 5884 5883 5882 5882 5881 5880 5879 5877 5876 5875 5874 5873 5872 5870 5869 5868 5867 5867 5866 5865 5865 5865 5865 5866 5866 5866 5867 5867 5868 5868
5882 5883 5883 5884 5886 5886 5887 5886 5886 5886 5886 5885 5886 5886 5885 5885 5884 5882 5882 5881 5880 5879 5879 5878 5877 5875 5874 5873 5872 5871 5870 5869 5868 5867 5866 5865 5864 5864 5863 5863 5863 5863 5863 5863 5864 5864 5865 5865 5866
5879 5881 5881 5883 5883 5883 5884 5883 5884 5882 5882 5882 5883 5883 5882 5882 5881 5879 5879 5878 5877 5876 5876 5875 5873 5872 5871 5870 5869 5868 5867 5866 5865 5864 5863 5862 5861 5861 5861 5860 5860 5860 5860 5861 5861 5862 5862 5863 5864
5876 5877 5878 5879 5879 5879 5879 5879 5880 5879 5878 5879 5879 5878 5878 5878 5877 5876 5875 5875 5873 5872 5872 5871 5870 5869 5868 5866 5866 5865 5864 5863 5862 5860 5859 5859 5858 5858 5857 5857 5857 5857 5858 5858 5859 5859 5859 5860 5861
5873 5874 5874 5874 5875 5875 5874 5875 5875 5875 5875 5875 5875 5874 5874 5874 5874 5873 5872 5871 5869 5868 5868 5867 5866 5866 5864 5863 5862 5861 5861 5859 5858 5857 5856 5855 5855 5854 5854 5854 5854 5854 5855 5855 5856 5856 5856 5857 5858
5868 5869 5870 5871 5871 5870 5870 5870 5871 5870 5870 5870 5870 5870 5869 5869 5869 5868 5866 5866 5866 5865 5864 5863 5862 5861 5861 5860 5859 5858 5857 5855 5854 5853 5852 5852 5851 5851 5851 5851 5851 5851 5851 5852 5852 5852 5853 5853 5855
5863 5865 5866 5866 5866 5866 5866 5866 5866 5866 5866 5866 5865 5865 5865 5864 5864 5862 5862 5861 5861 5861 5860 5859 5858 5857 5856 5856 5855 5854 5852 5851 5850 5849 5848 5848 5847 5847 5847 5847 5847 5847 5847 5848 5848 5849 5849 5850 5851
5859 5860 5861 5861 5861 5861 5861 5862 5861 5861 5861 5861 5861 5860 5859 5859 5858 5858 5857 5857 5856 5856 5855 5855 5854 5853 5852 5851 5850 5849 5848 5847 5846 5845 5844 5844 5843 5843 5843 5843 5843 5843 5843 5843 5844 5844 5845 5846 5847
5854 5856 5856 5856 5856 5856 5857 5856 5857 5856 5855 5855 5855 5854 5854 5853 5853 5852 5852 5852 5851 5851 5850 5849 5849 5848 5847 5847 5846 5845 5844 5843 5842 5841 5840 5839 5839 5839 5838 5838 5839 5839 5839 5839 5839 5840 5840 5841 5842
5849 5850 5850 5850 5850 5851 5851 5850 5851 5850 5850 5850 5849 5849 5849 5848 5847 5847 5847 5846 5846 5845 5845 5843 5843 5843 5842 5842 5841 5840 5840 5838 5837 5836 5835 5835 5834 5834 5834 5834 5834 5834 5834 5834 5835 5836 5837 5838 5839
5844 5845 5845 5844 5844 5845 5845 5844 5844 5845 5845 5845 5844 5844 5844 5843 5842 5842 5841 5840 5840 5839 5839 5838 5838 5838 5838 5837 5836 5835 5834 5833 5833 5832 5831 5830 5830 5830 5830 5830 5829 5829 5829 5830 5831 5832 5832 5833 5835
5838 5839 5839 5838 5838 5839 5840 5838 5839 5840 5840 5840 5839 5839 5838 5838 5837 5836 5836 5835 5834 5833 5833 5833 5832 5832 5832 5832 5831 5830 5829 5828 5828 5827 5827 5826 5826 5825 5825 5825 5825 5825 5825 5826 5826 5827 5828 5829 5830
5832 5833 5833 5833 5833 5834 5833 5832 5835 5835 5834 5834 5834 5833 5833 5833 5832 5831 5830 5829 5828 5827 5827 5827 5826 5826 5826 5826 5825 5825 5824 5823 5823 5822 5822 5821 5821 5821 5821 5821 5821 5820 5821 5821 5822 5823 5824 5825 5826
5827 5827 5828 5827 5827 5827 5827 5827 5828 5829 5829 5829 5829 5828 5828 5827 5827 5826 5825 5824 5824 5822 5821 5821 5820 5820 5820 5820 5819 5819 5819 5818 5817 5817 5816 5816 5816 5816 5816 5816 5816 5816 5816 5817 5818 5819 5820 5821 5822
5821 5821 5821 5821 5821 5821 5821 5821 5822 5823 5823 5823 5823 5822 5822 5821 5821 5821 5820 5819 5818 5817 5816 5815 5815 5814 5814 5814 5814 5813 5813 5813 5812 5811 5810 5811 5811 5811 5811 5811 5811 5812 5812 5813 5813 5814 5815 5816 5817
5815 5815 5814 5815 5815 5815 5815 5818 5817 5817 5818 5817 5817 5817 5816 5815 5814 5814 5814 5813 5812 5811 5810 5810 5809 5808 5808 5808 5808 5807 5807 5807 5806 5805 5805 5805 5805 5805 5805 5806 5806 5807 5807 5808 5808 5809 5810 5811 5812
5808 5808 5808 5809 5809 5809 5809 5813 5812 5812 5811 5812 5812 5812 5810 5810 5809 5809 5808 5807 5807 5805 5804 5803 5803 5802 5802 5802 5802 5801 5801 5801 5800 5800 5800 5800 5799 5800 5800 5800 5801 5801 5802 5802 5803 5804 5805 5805 5806